Regional Weather Roundup
Issued by NWS

Home | Current Version | Previous Version | Graphics & Text | Print | Product List | Glossary Off
Versions: 1 2 3 4 5 6 7 8 9 10 11 12 13 14 15 16 17 18 19 20 21 22 23 24 25 26 27 28 29 30 31 32 33 34 35 36 37 38 39 40 41 42 43 44 45 46 47 48 49 50

392
ASUS43 KMKX 181900
RWRWI

WISCONSIN REGIONAL WEATHER ROUNDUP
NATIONAL WEATHER SERVICE MILWAUKEE/SULLIVAN WI
100 PM CST WED JAN 18 2017

NOTE: "FAIR" INDICATES FEW OR NO CLOUDS BELOW 12,000 FEET WITH NO
SIGNIFICANT WEATHER AND/OR OBSTRUCTIONS TO VISIBILITY.

WIZ001-002-006>008-014>016-023>028-182000-
NORTHWEST WISCONSIN

CITY           SKY/WX    TMP DP  RH WIND       PRES   REMARKS
SUPERIOR ARPT  SUNNY     38  27  62 SW8       29.80F WCI  33
ASHLAND        SUNNY     41  27  57 SW12      29.79F
HAYWARD        SUNNY     38  26  62 SW14      29.82F WCI  30
SIREN          SUNNY     39  27  62 SW9       29.83F WCI  33
CUMBERLAND     SUNNY     34  28  80 SW12      29.85S WCI  25
RICE LAKE      SUNNY     38  29  71 S9        29.88R WCI  31
CHETEK         NOT AVBL
LADYSMITH      SUNNY     38  29  69 S6        29.88S WCI  34
EAU CLAIRE     NOT AVBL
MENOMONIE      SUNNY     38  30  73 MISG      29.90F
NEW RICHMOND   SUNNY     37  29  73 S12       29.87F WCI  30
OSCEOLA        SUNNY     38  30  73 S10       29.89F WCI  31
$$

WIZ003>005-009-010-017-018-182000-
NORTH CENTRAL WISCONSIN

CITY           SKY/WX    TMP DP  RH WIND       PRES   REMARKS
MANITOWISH WTR NOT AVBL
ARBOR VITAE    SUNNY     42  31  65 SW8       29.81F
WOODRUFF       SUNNY     42  31  65 SW8       29.81F
RHINELANDER    SUNNY     39  30  70 SW10      29.82F WCI  32
EAGLE RIVER    SUNNY     39  27  62 SW8       29.80F WCI  33
LAND O LAKES   SUNNY     43  27  53 SW8G16    29.79F
PHILLIPS       SUNNY     37  29  73 SW12      29.82F WCI  29
TOMAHAWK       SUNNY     39  28  64 S5        29.84F
MEDFORD        SUNNY     32  29  87 S9        29.87F WCI  24
MERRILL        SUNNY     37  31  77 SW8         N/A  WCI  31
$$

WIZ029-030-035-036-043>047-182000-
CENTRAL WISCONSIN

CITY           SKY/WX    TMP DP  RH WIND       PRES   REMARKS
WAUSAU         SUNNY     36  30  79 SW9       29.88F WCI  29
MOSINEE        NOT AVBL
MARSHFIELD     SUNNY     38  30  73 SW8       29.89S WCI  32
STEVENS POINT  SUNNY     33  31  91 S9        29.92F WCI  26
WAUPACA        SUNNY     41  32  70 CALM      29.95F
WAUTOMA        SUNNY     39  31  72 SW15      29.96F WCI  31
WISC RAPIDS    SUNNY     38  32  79 SW12      29.93F WCI  30
CAMP DOUGLAS   NOT AVBL
$$

WIZ011>013-019>022-031-037>040-048>050-182000-
NORTHEAST WISCONSIN

CITY           SKY/WX    TMP DP  RH WIND       PRES   REMARKS
ANTIGO         SUNNY     32  32 100 SW10      29.86F WCI  23
SHAWANO        MOSUNNY   39  32  76 SW6       29.92F WCI  35
OCONTO         NOT AVBL
STURGEON BAY   SUNNY     36  32  85 SW12      29.91F WCI  28
GREEN BAY      CLOUDY    36  33  89 SW13      29.94F WCI  27
MANITOWOC      NOT AVBL
APPLETON       PTSUNNY   34  34 100 SW12G18   29.94S WCI  25
CLINTONVILLE   SUNNY     37  30  75 SW10      29.93S WCI  30
OSHKOSH        CLOUDY    34  31  88 S10       29.96F WCI  26
$$

WIZ032>034-041-042-053>061-182000-
SOUTHWEST WISCONSIN

CITY           SKY/WX    TMP DP  RH WIND       PRES   REMARKS
LA CROSSE      CLOUDY    36  30  79 S10       29.97F WCI  28
SPARTA         SUNNY     37  31  78 S9        29.98S WCI  31
VIROQUA        CLOUDY    32  31  97 SW9       29.97F WCI  24
BOSCOBEL       CLOUDY    35  30  82 SW10      30.01F WCI  27
PRAIRIE DU CHI CLOUDY    34  30  86 S8        30.02F WCI  27
PLATTEVILLE    CLOUDY    32  32 100 S13       30.04F WCI  22
$$

WIZ056-057-062-063-064-067-068-182000-
SOUTH CENTRAL WISCONSIN

CITY           SKY/WX    TMP DP  RH WIND       PRES   REMARKS
REEDSBURG      CLOUDY    33  32  96 SW10G23   30.00R WCI  25
BARABOO/DELLS  CLOUDY    35  31  83 W15G21    30.00R WCI  26
LONE ROCK      NOT AVBL
MINERAL POINT  CLOUDY    32  32 100 S12       30.01F FOG     WCI  23
MADISON        CLOUDY    33  30  88 SW7G18    30.01F WCI  27
MIDDLETON      CLOUDY    34  34  99 SW15G22   30.02S WCI  24
WATERTOWN      CLOUDY    34  34  99 SW17G25   30.01R WCI  23
MONROE         CLOUDY    32  32 100 SW21G26   30.03F WCI  20
JANESVILLE     CLOUDY    34  34 100 SW13G20   30.04F WCI  25
$$

WIZ051-052-058>065-066-070>072-182000-
SOUTHEAST WISCONSIN

CITY           SKY/WX    TMP DP  RH WIND       PRES   REMARKS
MILWAUKEE      PTSUNNY   37  32  82 SW13      30.02R WCI  29
WAUKESHA       CLOUDY    34  32  93 SW12G18   30.02R WCI  25
MILWAUKEE/TIMM MOSUNNY   37  30  75 SW16      30.01S WCI  28
RACINE         CLOUDY    36  31  82 SW14      30.04S WCI  27
KENOSHA        CLOUDY    35  32  88 SW14      30.03F WCI  26
FOND DU LAC    CLOUDY    35  30  82 SW9       29.98R WCI  28
SHEBOYGAN      SUNNY     38  32  79 SW7       29.97F WCI  33
WEST BEND      SUNNY     37  34  87 SW7       29.98S WCI  32
JUNEAU         CLOUDY    33  32  95 S17       30.00S WCI  22
$$

LSZ147-162-182000-
LAKE SUPERIOR

STATION/POSITION TIME  TEMP    WIND        PRES    WAVE
                       AIR SEA DIR/SP/G            HT/PER
                 (UTC) (F)     (DEG/KT/KT) (MB)    (FT/S)
DEVILS ISLAND    1800   33     240/ 15/ 19 1009.1F
PORT WING        1840   36     270/ 11/ 13 1009.1S
SAXON HARBOR     1840   44     220/ 10/ 15 1008.5F
$$

LMZ867-665-643>646-182000-
LAKE MICHIGAN

STATION/POSITION TIME  TEMP    WIND        PRES    WAVE
                       AIR SEA DIR/SP/G            HT/PER
                 (UTC) (F)     (DEG/KT/KT) (MB)    (FT/S)
NORTHPORT PIER   1840   36     210/  3/ 16 1012.5F
SISTER BAY       1820   36     210/ 16/ 20   N/A
ALGOMA LAKESHORE 1708          260/ 13/ 17   N/A
KEWAUNEE LAKESHO 1824   35     200/ 10/ 12 1013.6
SHEBOYGAN LAKESH 1800   34     210/  8/  9 1015.7F
PORT WASHINGTON  1830   42     230/  3/  8 1016.3F
MILWAUKEE LAKESH 1830   36     220/ 13/ 16   N/A
KENOSHA   LAKESH 1800   35     220/ 11/ 17 1017.6
$$

TC  - TEMPERATURE IN CELSIUS
VSB - VISIBILITY IN STATUTE MILES
WCI - WIND CHILL INDEX
HX  - HEAT INDEX





USA.gov is the U.S. government's official web portal to all federal, state and local government web resources and services.